This is the latest recevied weather packets stored in our database for station/object K2RMB. If no packets are shown the sender has not sent any weather packets the latest 10 day(s).
| Time | Temp. | Humidity | Pressure | Rain* | Wind** | Luminosity | Snow |
|---|---|---|---|---|---|---|---|
| 1777235055 | 17.22° C | 35% | 1019.2 hPa | 0 mm | - | 245 W/m² | - |
| 1777234751 | 17.78° C | 38% | 1019.2 hPa | 0 mm | - | 241 W/m² | - |
| 1777234448 | 17.22° C | 35% | 1019.2 hPa | 0 mm | - | 615 W/m² | - |
| 1777234142 | 17.22° C | 35% | 1019.2 hPa | 0 mm | - | 258 W/m² | - |
| 1777233838 | 16.67° C | 35% | 1019.2 hPa | 0 mm | - | 655 W/m² | - |
| 1777233535 | 17.22° C | 38% | 1019.2 hPa | 0 mm | - | 219 W/m² | - |
| 1777233234 | 17.22° C | 36% | 1019.2 hPa | 0 mm | - | 219 W/m² | - |
| 1777232929 | 17.22° C | 37% | 1019.2 hPa | 0 mm | - | 287 W/m² | - |
| 1777232628 | 17.78° C | 32% | 1019.2 hPa | 0 mm | - | 358 W/m² | - |
| 1777232326 | 17.22° C | 35% | 1019.5 hPa | 0 mm | - | 783 W/m² | - |
| 1777232022 | 17.78° C | 36% | 1019.2 hPa | 0 mm | - | 751 W/m² | - |
| 1777231719 | 17.78° C | 35% | 1019.2 hPa | 0 mm | - | 698 W/m² | - |
| 1777231416 | 17.78° C | 36% | 1019.5 hPa | 0 mm | - | 708 W/m² | - |
| 1777231113 | 18.33° C | 35% | 1019.5 hPa | 0 mm | - | 707 W/m² | - |
| 1777230807 | 17.78° C | 35% | 1019.5 hPa | 0 mm | - | 734 W/m² | - |
| 1777230503 | 17.22° C | 35% | 1019.5 hPa | 0 mm | - | 778 W/m² | - |
| 1777230200 | 16.67° C | 39% | 1019.5 hPa | 0 mm | - | 288 W/m² | - |
| 1777229896 | 16.67° C | 39% | 1019.9 hPa | 0 mm | - | 355 W/m² | - |
| 1777229593 | 17.22° C | 39% | 1019.5 hPa | 0 mm | - | 952 W/m² | - |
| 1777229290 | 17.78° C | 34% | 1019.5 hPa | 0 mm | - | 903 W/m² | - |
| 1777228987 | 16.67° C | 37% | 1019.5 hPa | 0 mm | - | 854 W/m² | - |
| 1777228682 | 16.67° C | 36% | 1019.9 hPa | 0 mm | - | 296 W/m² | - |
| 1777228379 | 16.67° C | 38% | 1019.5 hPa | 0 mm | - | 826 W/m² | - |
| 1777228075 | 16.67° C | 37% | 1019.5 hPa | 0 mm | - | 868 W/m² | - |
| 1777227774 | 17.22° C | 35% | 1019.9 hPa | 0 mm | - | 930 W/m² | - |
* Rain latest hour (hover to see other rain measurements)
** Current wind speed in m/s (hover to see current wind gust speed)